Content
SEND FEEDBACK

Daily
Averages
Monthly
Summary
United States of America

LAMONI, IOWA


Home > North America > United States > Iowa
Elevation: 1140 feet     Latitude: 40 37N     Longitude: 093 57W

WEATHER
 
SELECT A DAY
Number of Records: 171,133;   Date Range: 1/1/95 - 7/7/14
 
SHARE

PRINT THIS DATA

[ ← Previous Day ]
WEATHER ALMANAC - JANUARY 30, 2013
[ Next Day → ]
[ °C ]   °F
Weather ElementAverageHighLow
Temperature23.9 °F32 °F (12:23 am)19 °F (11:53 pm)
Dewpoint19.3 °F30.2 °F (12:23 am)12 °F (10:53 pm)
Humidity82.9 %93 % (12:23 am)68 % (3:30 pm)
Barometer29.65 in29.93 in (11:53 pm)29.46 in (2:23 am)
Wind Speed20.9 mph31.1 mph (11:53 am)
Wind Gust40.3 mph (10:53 am)
Weather ElementAverage
Visibility3.2 mi
Wind DirectionWNW (305.5 °)

Weather ElementTotal
Precipitation0.49 in
Heating Degree Days39.5 (Base 65)
Averaged from 56 records on January 30, 2013
WEATHER CONDITIONS BREAKOUT
WIND DIRECTION BREAKOUT
WEATHER BY HOUR - JANUARY 30, 2013
[ °C ]   °F
Local TimeTemperatureDewpointHumidityBarometerVisibilityWind DirectionWind SpeedGust SpeedPrecipitationEventsConditions
12:23 AM32.0 °F30.2 °F93 %29.49 in2.0 miNE (40°)16.1 mph24.2 mph0.04 inSnowLight Snow
12:38 AM32.0 °F30.2 °F93 %29.49 in4.0 miNNE (30°)17.3 mph0.04 inSnowLight Snow
12:53 AM32.0 °F30.0 °F92 %29.51 in5.0 miNNE (20°)12.7 mph0.04 inOvercast
1:53 AM32.0 °F30.0 °F92 %29.53 in3.0 miNorth (360°)12.7 mph21.9 mph0.00 inSnowLight Snow
2:02 AM30.2 °F28.4 °F93 %29.50 in2.5 miNorth (360°)17.3 mph23.0 mph0.00 inSnowLight Snow
2:10 AM30.2 °F28.4 °F93 %29.48 in3.0 miNorth (360°)16.1 mph25.3 mph0.00 inSnowLight Snow
2:23 AM30.2 °F28.4 °F93 %29.46 in1.8 miNorth (360°)19.6 mph26.5 mph0.01 inSnowLight Snow
2:53 AM30.0 °F28.0 °F92 %29.51 in1.0 miNorth (350°)12.7 mph21.9 mph0.02 inSnowLight Snow
3:25 AM28.4 °F26.6 °F93 %29.49 in0.8 miNorth (350°)19.6 mph24.2 mph0.02 inSnowLight Snow
3:53 AM28.0 °F26.1 °F92 %29.55 in0.5 miNW (320°)17.3 mph0.06 inFog-SnowSnow
4:12 AM26.6 °F24.8 °F93 %29.52 in0.5 miNNW (340°)18.4 mph28.8 mph0.03 inFog-SnowSnow
4:42 AM26.6 °F24.8 °F93 %29.52 in0.5 miNNW (330°)23.0 mph33.4 mph0.06 inFog-SnowSnow
4:53 AM26.1 °F23.0 °F88 %29.57 in0.8 miNNW (340°)21.9 mph31.1 mph0.06 inSnowLight Snow
5:17 AM24.8 °F21.2 °F86 %29.53 in1.0 miNNW (340°)19.6 mph32.2 mph0.02 inSnowLight Snow
5:25 AM24.8 °F21.2 °F86 %29.53 in1.0 miNNW (330°)18.4 mph29.9 mph0.02 inSnowLight Snow
5:48 AM24.8 °F21.2 °F86 %29.53 in0.8 miNNW (340°)20.7 mph28.8 mph0.03 inSnowLight Snow
5:53 AM24.1 °F21.0 °F88 %29.57 in0.8 miNNW (340°)26.5 mph31.1 mph0.03 inSnowLight Snow
6:10 AM24.8 °F21.2 °F86 %29.54 in1.0 miNNW (330°)18.4 mph28.8 mph0.00 inSnowLight Snow
6:40 AM24.8 °F21.2 °F86 %29.55 in2.0 miNNW (330°)18.4 mph25.3 mph0.00 inSnowLight Snow
6:53 AM24.1 °F19.9 °F84 %29.58 in2.0 miNNW (330°)21.9 mph27.6 mph0.01 inSnowLight Snow
7:37 AM23.0 °F19.4 °F86 %29.56 in1.8 miNNW (330°)21.9 mph31.1 mph0.00 inSnowLight Snow
7:53 AM23.0 °F19.0 °F85 %29.61 in1.8 miNNW (330°)21.9 mph31.1 mph0.00 inSnowLight Snow
8:01 AM23.0 °F19.4 °F86 %29.57 in2.0 miNNW (330°)20.7 mph28.8 mph0.00 inSnowLight Snow
8:14 AM23.0 °F19.4 °F86 %29.58 in1.5 miNNW (330°)24.2 mph34.5 mph0.00 inSnowLight Snow
8:43 AM21.2 °F19.4 °F93 %29.59 in0.8 miNW (320°)24.2 mph32.2 mph0.00 inSnowLight Snow
8:53 AM21.9 °F19.0 °F89 %29.64 in0.8 miNW (320°)23.0 mph31.1 mph0.00 inSnowLight Snow
9:22 AM21.2 °F17.6 °F86 %29.61 in1.0 miNW (320°)27.6 mph33.4 mph0.00 inSnowLight Snow
9:32 AM21.2 °F19.4 °F93 %29.62 in0.8 miNW (320°)24.2 mph31.1 mph0.00 inSnowLight Snow
9:53 AM23.0 °F19.0 °F85 %29.68 in1.0 miNW (320°)20.7 mph35.7 mph0.00 inSnowLight Snow
10:08 AM21.2 °F17.6 °F86 %29.65 in1.0 miNW (310°)27.6 mph38.0 mph0.00 inSnowLight Snow
10:13 AM21.2 °F17.6 °F86 %29.65 in0.8 miNW (320°)28.8 mph38.0 mph0.00 inSnowLight Snow
10:22 AM21.2 °F17.6 °F86 %29.66 in1.2 miNW (310°)25.3 mph34.5 mph0.00 inSnowLight Snow
10:29 AM21.2 °F17.6 °F86 %29.66 in1.0 miNW (320°)28.8 mph39.1 mph0.00 inSnowLight Snow
10:53 AM21.9 °F17.1 °F82 %29.72 in1.0 miNW (320°)28.8 mph40.3 mph0.00 inSnowLight Snow
11:12 AM21.2 °F17.6 °F86 %29.68 in1.0 miNW (320°)25.3 mph40.3 mph0.00 inSnowLight Snow
11:25 AM21.2 °F17.6 °F86 %29.68 in1.5 miNNW (330°)19.6 mph34.5 mph0.00 inSnowLight Snow
11:53 AM21.9 °F16.0 °F78 %29.72 in1.0 miNNW (330°)31.1 mph40.3 mph0.00 inSnowLight Snow
12:03 PM21.2 °F15.8 °F80 %29.68 in2.0 miNW (320°)24.2 mph33.4 mphSnowLight Snow
12:18 PM21.2 °F15.8 °F80 %29.68 in1.5 miNNW (330°)28.8 mph39.1 mph0.00 inSnowBlowing Snow
12:29 PM23.0 °F15.8 °F74 %29.67 in2.5 miNW (320°)31.1 mph38.0 mph0.00 inSnowBlowing Snow
12:51 PM23.0 °F15.8 °F74 %29.68 in3.0 miNW (320°)25.3 mph34.5 mph0.00 inSnowBlowing Snow
12:53 PM23.0 °F15.1 °F72 %29.72 in3.0 miNW (320°)21.9 mph34.5 mph0.00 inSnowBlowing Snow
1:53 PM24.1 °F15.1 °F69 %29.74 in5.0 miNW (310°)21.9 mph36.8 mph0.00 inMostly Cloudy
2:53 PM24.1 °F16.0 °F71 %29.76 in5.0 miNW (310°)23.0 mph33.4 mph0.00 inSnowLight Snow
3:30 PM23.0 °F14.0 °F68 %29.73 in6.0 miNW (310°)23.0 mph33.4 mph0.00 inOvercast
3:53 PM23.0 °F15.1 °F72 %29.78 in8.0 miNW (310°)19.6 mph29.9 mph0.00 inOvercast
4:53 PM21.9 °F14.0 °F72 %29.81 in7.0 miNW (310°)19.6 mph27.6 mph0.00 inSnowLight Snow
5:53 PM21.9 °F12.9 °F68 %29.85 in9.0 miNW (310°)19.6 mph26.5 mph0.00 inOvercast
6:53 PM21.0 °F12.9 °F71 %29.88 in9.0 miWNW (300°)17.3 mph24.2 mph0.00 inOvercast
7:53 PM21.0 °F12.9 °F71 %29.88 in10.0 miWNW (290°)12.7 mphOvercast
8:53 PM21.0 °F12.9 °F71 %29.90 in10.0 miWest (280°)15.0 mphOvercast
9:53 PM21.0 °F12.9 °F71 %29.90 in10.0 miWest (270°)13.8 mphOvercast
10:53 PM19.9 °F12.0 °F71 %29.91 in10.0 miWest (270°)12.7 mphOvercast
11:20 PM19.4 °F12.2 °F74 %29.86 in7.0 miWest (280°)15.0 mph0.00 inSnowLight Snow
11:44 PM19.4 °F12.2 °F74 %29.87 in9.0 miWNW (290°)16.1 mph0.00 inSnowLight Snow
11:53 PM19.0 °F12.0 °F74 %29.93 in9.0 miWest (280°)17.3 mph0.00 inSnowLight Snow
Hourly data recorded from KLWD, located miles away from Lamoni, Iowa







STORIES FROM OUR PARTNERS